Вернуться в каталог

STARLINK-2319

АктивенСвязьVLEO
NORAD 47790·PAYLOAD·🇺🇸 United States

Запущен Mar 11, 2021 с Cape Canaveral Space Force Station

Loading…

Ближайшие Пролёты (ближайшие 24 часа)

TLE

СвежийSource: CelesTrak SupGP

Эпоха: Sep 15, 2026, 00:32 UTC

1 47790C 21018D   26258.02270833 -.00015441  00000+0 -49655-3 0  2583
2 47790  53.1589  55.5752 0001282  81.2387 271.7160 15.31708924    16

Отслеживайте STARLINK-2319 в реальном времени с AllMySat

Download on the App Store